AUA71 LOWW-HECA

Flight info

Callsign AUA71
Flight time 3h 1m
Altitude 35000
Route ARSIN DCT NALOX DCT OSDUK DCT SIVLA DCT AKIKA DCT MAVAR DCT BITLA DCT SIGFO DCT NEVRA DCT KUMBI L612 BLT A16 CVO
Aircraft A320/M-SDE3FGHIRWY/LB1

Departure

Time 2026-04-26 11:21
Airport Vienna International Airport (LOWW)

Arrival

Time 2026-04-26 14:22
Airport Cairo International Airport (HECA)
Time Latitude Longitude Altitude Speed Heading
2026-04-26 10:58 48.11557 16.56728 617 ft 0 kts 206°
2026-04-26 11:16 48.11548 16.56721 610 ft 5 kts 206°
2026-04-26 11:16 48.11507 16.56666 610 ft 12 kts 240°
2026-04-26 11:17 48.11434 16.56609 621 ft 13 kts 150°
2026-04-26 11:17 48.11391 16.56715 616 ft 11 kts 116°
2026-04-26 11:17 48.11350 16.56837 612 ft 15 kts 116°
2026-04-26 11:17 48.11307 16.56967 617 ft 13 kts 116°
2026-04-26 11:18 48.11269 16.57080 618 ft 11 kts 116°
2026-04-26 11:18 48.11238 16.57180 618 ft 11 kts 114°
2026-04-26 11:18 48.11206 16.57282 613 ft 12 kts 116°
2026-04-26 11:18 48.11158 16.57432 610 ft 16 kts 115°
2026-04-26 11:19 48.11118 16.57557 615 ft 12 kts 116°
2026-04-26 11:19 48.11073 16.57644 610 ft 10 kts 154°
2026-04-26 11:19 48.11005 16.57620 610 ft 13 kts 205°
2026-04-26 11:19 48.10928 16.57556 613 ft 10 kts 231°
2026-04-26 11:20 48.10935 16.57466 612 ft 10 kts 295°
2026-04-26 11:20 48.10986 16.57313 613 ft 47 kts 296°
2026-04-26 11:20 48.11346 16.56212 616 ft 125 kts 296°
2026-04-26 11:20 48.11794 16.54825 656 ft 164 kts 295°
2026-04-26 11:21 48.12159 16.53308 1395 ft 158 kts 274°
2026-04-26 11:21 48.11661 16.51786 1939 ft 178 kts 219°
2026-04-26 11:21 48.10505 16.50993 2458 ft 192 kts 202°
2026-04-26 11:21 48.09172 16.50281 2738 ft 215 kts 201°
2026-04-26 11:22 48.07707 16.49521 3199 ft 227 kts 202°
2026-04-26 11:22 48.06204 16.48742 3860 ft 230 kts 204°
2026-04-26 11:22 48.04774 16.47649 4353 ft 239 kts 217°
2026-04-26 11:22 48.03307 16.46245 4681 ft 262 kts 219°
2026-04-26 11:23 48.01743 16.44716 5248 ft 273 kts 219°
2026-04-26 11:23 48.00070 16.43315 6032 ft 282 kts 206°
2026-04-26 11:23 47.98096 16.42848 6811 ft 297 kts 182°
2026-04-26 11:23 47.96063 16.43627 7504 ft 310 kts 156°
2026-04-26 11:24 47.94147 16.45170 8226 ft 315 kts 153°
2026-04-26 11:24 47.92217 16.46758 8951 ft 319 kts 152°
2026-04-26 11:24 47.90265 16.48364 9686 ft 323 kts 152°
2026-04-26 11:24 47.88276 16.49992 10282 ft 332 kts 152°
2026-04-26 11:25 47.86184 16.51695 10446 ft 354 kts 152°
2026-04-26 11:25 47.83949 16.53505 10572 ft 377 kts 152°
2026-04-26 11:25 47.81602 16.55406 10943 ft 389 kts 152°
2026-04-26 11:25 47.79213 16.57343 11530 ft 393 kts 152°
2026-04-26 11:26 47.76803 16.59298 12136 ft 397 kts 152°
2026-04-26 11:26 47.74396 16.61252 12755 ft 401 kts 152°
2026-04-26 11:26 47.71942 16.63244 13378 ft 404 kts 152°
2026-04-26 11:26 47.69427 16.65281 13993 ft 408 kts 152°
2026-04-26 11:27 47.66926 16.67302 14527 ft 411 kts 152°
2026-04-26 11:27 47.64406 16.69334 15067 ft 414 kts 152°
2026-04-26 11:27 47.61864 16.71380 15598 ft 417 kts 152°
2026-04-26 11:27 47.59303 16.73442 16125 ft 420 kts 152°
2026-04-26 11:28 47.56760 16.75488 16658 ft 423 kts 152°
2026-04-26 11:28 47.54163 16.77578 17192 ft 426 kts 152°
2026-04-26 11:28 47.51547 16.79682 17719 ft 430 kts 152°
2026-04-26 11:28 47.48877 16.81829 18257 ft 433 kts 152°
2026-04-26 11:29 47.46225 16.83962 18751 ft 436 kts 152°
2026-04-26 11:29 47.43552 16.86106 19231 ft 438 kts 152°
2026-04-26 11:29 47.40867 16.88252 19701 ft 441 kts 152°
2026-04-26 11:29 47.38160 16.90408 20149 ft 443 kts 152°
2026-04-26 11:30 47.35447 16.92564 20625 ft 444 kts 152°
2026-04-26 11:30 47.33641 16.94000 20928 ft 446 kts 152°
2026-04-26 11:30 47.29980 16.96912 21507 ft 449 kts 152°
2026-04-26 11:30 47.27227 16.99099 21928 ft 451 kts 152°
2026-04-26 11:31 47.24460 17.01294 22347 ft 453 kts 152°
2026-04-26 11:31 47.21679 17.03503 22756 ft 455 kts 152°
2026-04-26 11:31 47.18887 17.05718 23147 ft 457 kts 152°
2026-04-26 11:31 47.16078 17.07937 23532 ft 459 kts 152°
2026-04-26 11:32 47.13258 17.10160 23889 ft 461 kts 152°
2026-04-26 11:32 47.10433 17.12385 24221 ft 462 kts 152°
2026-04-26 11:32 47.07589 17.14623 24498 ft 464 kts 152°
2026-04-26 11:32 47.04736 17.16867 24798 ft 466 kts 152°
2026-04-26 11:33 47.01873 17.19116 25107 ft 468 kts 152°
2026-04-26 11:33 46.99002 17.21371 25393 ft 470 kts 152°
2026-04-26 11:33 46.96116 17.23637 25690 ft 471 kts 152°
2026-04-26 11:33 46.93220 17.25906 25980 ft 473 kts 152°
2026-04-26 11:34 46.90315 17.28178 26246 ft 474 kts 152°
2026-04-26 11:34 46.87409 17.30448 26574 ft 474 kts 152°
2026-04-26 11:34 46.84497 17.32720 26873 ft 475 kts 152°
2026-04-26 11:34 46.81576 17.34994 27144 ft 476 kts 152°
2026-04-26 11:35 46.78646 17.37273 27364 ft 478 kts 152°
2026-04-26 11:35 46.75700 17.39561 27574 ft 480 kts 152°
2026-04-26 11:35 46.72745 17.41854 27814 ft 482 kts 152°
2026-04-26 11:35 46.70785 17.43374 27965 ft 483 kts 152°
2026-04-26 11:36 46.66807 17.46454 28270 ft 485 kts 153°
2026-04-26 11:36 46.63834 17.48753 28535 ft 484 kts 153°
2026-04-26 11:36 46.60858 17.51048 28784 ft 484 kts 153°
2026-04-26 11:36 46.57877 17.53347 28960 ft 486 kts 153°
2026-04-26 11:37 46.54891 17.55652 29201 ft 486 kts 153°
2026-04-26 11:37 46.51910 17.57947 29487 ft 485 kts 153°
2026-04-26 11:37 46.48928 17.60237 29736 ft 485 kts 153°
2026-04-26 11:37 46.45943 17.62527 29977 ft 485 kts 153°
2026-04-26 11:38 46.42966 17.64811 30297 ft 483 kts 153°
2026-04-26 11:38 46.39999 17.67082 30531 ft 482 kts 153°
2026-04-26 11:38 46.37036 17.69344 30762 ft 481 kts 153°
2026-04-26 11:38 46.34074 17.71601 30970 ft 481 kts 153°
2026-04-26 11:39 46.31113 17.73859 31185 ft 481 kts 153°
2026-04-26 11:39 46.28154 17.76114 31407 ft 480 kts 153°
2026-04-26 11:39 46.25202 17.78363 31641 ft 479 kts 153°
2026-04-26 11:39 46.22257 17.80604 31904 ft 478 kts 153°
2026-04-26 11:40 46.19320 17.82836 32161 ft 477 kts 154°
2026-04-26 11:40 46.16382 17.85065 32353 ft 477 kts 153°
2026-04-26 11:40 46.13451 17.87290 32585 ft 476 kts 153°
2026-04-26 11:40 46.10519 17.89512 32827 ft 475 kts 153°
2026-04-26 11:41 46.07598 17.91719 33080 ft 474 kts 153°
2026-04-26 11:42 45.87246 18.07004 33161 ft 468 kts 153°
2026-04-26 11:43 45.81469 18.11317 33157 ft 468 kts 153°
2026-04-26 11:43 45.75410 18.14600 33153 ft 466 kts 167°
2026-04-26 11:44 45.69130 18.16882 33138 ft 465 kts 167°
2026-04-26 11:44 45.62867 18.19157 33137 ft 464 kts 167°
2026-04-26 11:45 45.56613 18.21443 33138 ft 464 kts 167°
2026-04-26 11:45 45.50348 18.23731 33135 ft 465 kts 167°
2026-04-26 11:46 45.44124 18.25977 33138 ft 465 kts 167°
2026-04-26 11:46 45.37850 18.28237 33135 ft 465 kts 167°
2026-04-26 11:47 45.31582 18.30491 33135 ft 465 kts 167°
2026-04-26 11:47 45.25320 18.32750 33135 ft 464 kts 167°
2026-04-26 11:48 45.19056 18.34997 33135 ft 464 kts 167°
2026-04-26 11:48 45.12785 18.37236 33132 ft 465 kts 167°
2026-04-26 11:49 45.06603 18.39943 33136 ft 467 kts 161°
2026-04-26 11:49 45.00499 18.42998 33134 ft 465 kts 161°
2026-04-26 11:50 44.94402 18.46029 33136 ft 464 kts 161°
2026-04-26 11:50 44.88303 18.49039 33138 ft 464 kts 161°
2026-04-26 11:51 44.82204 18.52041 33137 ft 465 kts 161°
2026-04-26 11:51 44.76098 18.55041 33134 ft 465 kts 161°
2026-04-26 11:52 44.70979 18.57559 33139 ft 465 kts 161°
2026-04-26 11:52 44.63879 18.61051 33135 ft 465 kts 161°
2026-04-26 11:53 44.57757 18.64047 33142 ft 466 kts 161°
2026-04-26 11:54 44.48570 18.68528 33136 ft 466 kts 162°
2026-04-26 11:54 44.42440 18.71507 33138 ft 466 kts 162°
2026-04-26 11:55 44.36297 18.74485 33139 ft 468 kts 162°
2026-04-26 11:55 44.30130 18.77477 33141 ft 469 kts 162°
2026-04-26 11:56 44.25017 18.79957 33143 ft 468 kts 162°
2026-04-26 11:56 44.18861 18.82929 33135 ft 468 kts 162°
2026-04-26 11:57 44.12708 18.85893 33145 ft 468 kts 162°
2026-04-26 11:57 44.06548 18.88852 33139 ft 468 kts 162°
2026-04-26 11:58 44.00385 18.91798 33135 ft 468 kts 162°
2026-04-26 11:58 43.94224 18.94745 33133 ft 468 kts 162°
2026-04-26 11:59 43.88072 18.97684 33132 ft 467 kts 162°
2026-04-26 11:59 43.81918 19.00610 33128 ft 468 kts 162°
2026-04-26 12:00 43.75763 19.03536 33118 ft 468 kts 163°
2026-04-26 12:00 43.69596 19.06459 33126 ft 468 kts 163°
2026-04-26 12:01 43.63428 19.09375 33118 ft 468 kts 163°
2026-04-26 12:01 43.57263 19.12288 33113 ft 468 kts 163°
2026-04-26 12:02 43.51101 19.15193 33104 ft 467 kts 163°
2026-04-26 12:02 43.44949 19.18082 33114 ft 467 kts 163°
2026-04-26 12:03 43.38781 19.20977 33111 ft 469 kts 163°
2026-04-26 12:03 43.32604 19.23865 33115 ft 468 kts 163°
2026-04-26 12:04 43.26436 19.26739 33111 ft 468 kts 163°
2026-04-26 12:04 43.20273 19.29620 33108 ft 468 kts 163°
2026-04-26 12:05 43.14108 19.32492 33097 ft 468 kts 163°
2026-04-26 12:05 43.07936 19.35349 33102 ft 468 kts 163°
2026-04-26 12:06 43.01763 19.38208 33093 ft 468 kts 163°
2026-04-26 12:06 42.95593 19.41061 33089 ft 468 kts 163°
2026-04-26 12:07 42.89425 19.43899 33094 ft 468 kts 163°
2026-04-26 12:07 42.83257 19.46739 33094 ft 468 kts 164°
2026-04-26 12:08 42.77082 19.49572 33085 ft 468 kts 163°
2026-04-26 12:08 42.70907 19.52407 33076 ft 468 kts 164°
2026-04-26 12:09 42.64723 19.55229 33083 ft 469 kts 164°
2026-04-26 12:09 42.58538 19.58044 33075 ft 469 kts 164°
2026-04-26 12:10 42.52563 19.61584 33073 ft 472 kts 149°
2026-04-26 12:10 42.47335 19.67028 33079 ft 476 kts 143°
2026-04-26 12:11 42.42170 19.72646 33082 ft 476 kts 143°
2026-04-26 12:11 42.36997 19.78235 33077 ft 476 kts 143°
2026-04-26 12:12 42.31817 19.83835 33079 ft 477 kts 143°
2026-04-26 12:12 42.26631 19.89443 33067 ft 478 kts 143°
2026-04-26 12:13 42.21437 19.95050 33072 ft 478 kts 143°
2026-04-26 12:13 42.16234 20.00648 33067 ft 478 kts 143°
2026-04-26 12:14 42.11028 20.06228 33067 ft 478 kts 143°
2026-04-26 12:14 42.05825 20.11797 33065 ft 478 kts 143°
2026-04-26 12:15 42.00612 20.17362 33060 ft 479 kts 144°
2026-04-26 12:15 41.95390 20.22927 33068 ft 479 kts 143°
2026-04-26 12:16 41.90169 20.28491 33070 ft 479 kts 143°
2026-04-26 12:16 41.84943 20.34036 33069 ft 479 kts 144°
2026-04-26 12:17 41.79712 20.39567 33065 ft 479 kts 144°
2026-04-26 12:17 41.74483 20.45097 33067 ft 478 kts 144°
2026-04-26 12:18 41.69260 20.50627 33061 ft 479 kts 144°
2026-04-26 12:18 41.64013 20.56147 33060 ft 480 kts 144°
2026-04-26 12:19 41.58772 20.61679 33049 ft 480 kts 144°
2026-04-26 12:19 41.53537 20.67217 33049 ft 480 kts 144°
2026-04-26 12:20 41.48294 20.72739 33054 ft 480 kts 144°
2026-04-26 12:20 41.43049 20.78242 33058 ft 480 kts 144°
2026-04-26 12:21 41.37799 20.83741 33063 ft 481 kts 144°
2026-04-26 12:21 41.32537 20.89245 33066 ft 481 kts 144°
2026-04-26 12:22 41.27266 20.94738 33059 ft 481 kts 144°
2026-04-26 12:22 41.22000 21.00214 33064 ft 481 kts 144°
2026-04-26 12:23 41.16728 21.05682 33057 ft 481 kts 144°
2026-04-26 12:23 41.11461 21.11149 33051 ft 481 kts 144°
2026-04-26 12:24 41.06185 21.16617 33044 ft 482 kts 144°
2026-04-26 12:24 41.00897 21.22079 33034 ft 482 kts 144°
2026-04-26 12:25 40.92967 21.30245 33050 ft 482 kts 144°
2026-04-26 12:25 40.87686 21.35690 33048 ft 482 kts 142°
2026-04-26 12:26 40.82751 21.41702 33043 ft 483 kts 139°
2026-04-26 12:26 40.77848 21.47747 33044 ft 483 kts 139°
2026-04-26 12:27 40.72942 21.53793 33038 ft 483 kts 139°
2026-04-26 12:27 40.68031 21.59827 33038 ft 482 kts 139°
2026-04-26 12:28 40.63110 21.65834 33038 ft 482 kts 139°
2026-04-26 12:28 40.58192 21.71838 33039 ft 482 kts 139°
2026-04-26 12:29 40.53272 21.77841 33044 ft 482 kts 139°
2026-04-26 12:30 40.45883 21.86827 33048 ft 482 kts 139°
2026-04-26 12:30 40.40954 21.92803 33052 ft 482 kts 139°
2026-04-26 12:31 40.33558 22.01738 33051 ft 482 kts 139°
2026-04-26 12:31 40.28625 22.07693 33048 ft 482 kts 139°
2026-04-26 12:32 40.23689 22.13636 33043 ft 482 kts 139°
2026-04-26 12:33 40.16286 22.22509 33032 ft 481 kts 139°
2026-04-26 12:33 40.11355 22.28412 33029 ft 481 kts 139°
2026-04-26 12:34 40.06425 22.34308 33028 ft 481 kts 139°
2026-04-26 12:34 40.01493 22.40195 33029 ft 481 kts 139°
2026-04-26 12:35 39.96549 22.46079 33317 ft 481 kts 139°
2026-04-26 12:35 39.94078 22.49012 33574 ft 480 kts 138°
2026-04-26 12:35 39.91612 22.51937 33850 ft 479 kts 139°
2026-04-26 12:35 39.89152 22.54851 34104 ft 478 kts 139°
2026-04-26 12:36 39.86694 22.57757 34340 ft 477 kts 139°
2026-04-26 12:36 39.84242 22.60655 34546 ft 476 kts 139°
2026-04-26 12:36 39.81785 22.63555 34754 ft 476 kts 139°
2026-04-26 12:36 39.79337 22.66442 34951 ft 476 kts 139°
2026-04-26 12:37 39.76885 22.69338 35022 ft 476 kts 139°
2026-04-26 12:37 39.72808 22.74152 35028 ft 477 kts 139°
2026-04-26 12:38 39.67895 22.79938 35027 ft 477 kts 138°
2026-04-26 12:38 39.62983 22.85701 35031 ft 476 kts 138°
2026-04-26 12:39 39.58066 22.91449 35029 ft 476 kts 138°
2026-04-26 12:39 39.53153 22.97191 35026 ft 476 kts 138°
2026-04-26 12:40 39.48237 23.02922 35028 ft 475 kts 138°
2026-04-26 12:40 39.43324 23.08644 35024 ft 475 kts 138°
2026-04-26 12:41 39.38406 23.14361 35019 ft 475 kts 137°
2026-04-26 12:41 39.33484 23.20077 35020 ft 475 kts 137°
2026-04-26 12:42 39.28558 23.25768 35023 ft 475 kts 138°
2026-04-26 12:42 39.23629 23.31460 35022 ft 475 kts 137°
2026-04-26 12:43 39.18701 23.37144 35022 ft 475 kts 138°
2026-04-26 12:43 39.13772 23.42822 35022 ft 475 kts 138°
2026-04-26 12:44 39.08837 23.48491 35024 ft 475 kts 137°
2026-04-26 12:44 39.03899 23.54151 35023 ft 475 kts 137°
2026-04-26 12:45 38.98957 23.59803 35022 ft 475 kts 137°
2026-04-26 12:45 38.94010 23.65444 35024 ft 475 kts 137°
2026-04-26 12:46 38.89125 23.71162 35025 ft 475 kts 136°
2026-04-26 12:46 38.84307 23.76960 35026 ft 475 kts 135°
2026-04-26 12:47 38.79484 23.82743 35030 ft 474 kts 135°
2026-04-26 12:47 38.74638 23.88481 35029 ft 474 kts 136°
2026-04-26 12:48 38.69782 23.94195 35030 ft 474 kts 136°
2026-04-26 12:48 38.64929 23.99910 35029 ft 474 kts 136°
2026-04-26 12:49 38.60079 24.05619 35026 ft 474 kts 136°
2026-04-26 12:49 38.55229 24.11320 35034 ft 474 kts 135°
2026-04-26 12:50 38.50376 24.16999 35033 ft 473 kts 135°
2026-04-26 12:50 38.45524 24.22674 35031 ft 473 kts 135°
2026-04-26 12:51 38.40682 24.28340 35028 ft 473 kts 135°
2026-04-26 12:51 38.35825 24.33992 35026 ft 473 kts 136°
2026-04-26 12:52 38.30973 24.39630 35038 ft 472 kts 135°
2026-04-26 12:52 38.26116 24.45270 35033 ft 472 kts 135°
2026-04-26 12:53 38.21267 24.50898 35030 ft 472 kts 135°
2026-04-26 12:53 38.16398 24.56503 35027 ft 472 kts 136°
2026-04-26 12:54 38.11331 24.61821 35022 ft 473 kts 140°
2026-04-26 12:54 38.06120 24.66933 35020 ft 473 kts 140°
2026-04-26 12:55 38.00921 24.72054 35019 ft 473 kts 140°
2026-04-26 12:55 37.95767 24.77241 35017 ft 473 kts 139°
2026-04-26 12:56 37.90627 24.82440 35017 ft 473 kts 139°
2026-04-26 12:56 37.85475 24.87623 35017 ft 473 kts 139°
2026-04-26 12:57 37.80313 24.92784 35014 ft 473 kts 139°
2026-04-26 12:57 37.75148 24.97938 35013 ft 473 kts 139°
2026-04-26 12:58 37.67394 25.05661 35025 ft 473 kts 139°
2026-04-26 12:58 37.62221 25.10809 35021 ft 474 kts 139°
2026-04-26 12:59 37.57046 25.15947 35017 ft 474 kts 139°
2026-04-26 12:59 37.51871 25.21081 35016 ft 473 kts 139°
2026-04-26 13:00 37.46695 25.26211 35012 ft 474 kts 139°
2026-04-26 13:00 37.41473 25.31362 34993 ft 474 kts 139°
2026-04-26 13:01 37.36278 25.36466 35009 ft 474 kts 139°
2026-04-26 13:01 37.31087 25.41562 35006 ft 474 kts 139°
2026-04-26 13:02 37.25901 25.46662 35005 ft 473 kts 139°
2026-04-26 13:02 37.20714 25.51756 34999 ft 473 kts 139°
2026-04-26 13:03 37.15522 25.56842 34999 ft 474 kts 139°
2026-04-26 13:03 37.10326 25.61914 34998 ft 473 kts 139°
2026-04-26 13:04 37.05131 25.66980 35017 ft 473 kts 139°
2026-04-26 13:04 36.99936 25.72045 35011 ft 473 kts 139°
2026-04-26 13:05 36.94739 25.77095 35001 ft 473 kts 139°
2026-04-26 13:05 36.89539 25.82137 35000 ft 473 kts 139°
2026-04-26 13:06 36.84335 25.87171 34996 ft 473 kts 139°
2026-04-26 13:06 36.79128 25.92201 34990 ft 473 kts 139°
2026-04-26 13:07 36.73924 25.97224 35011 ft 473 kts 139°
2026-04-26 13:07 36.68714 26.02237 35004 ft 473 kts 139°
2026-04-26 13:08 36.63510 26.07238 34999 ft 473 kts 139°
2026-04-26 13:08 36.58299 26.12232 35003 ft 472 kts 139°
2026-04-26 13:09 36.53090 26.17220 34988 ft 473 kts 139°
2026-04-26 13:09 36.47878 26.22204 34985 ft 473 kts 139°
2026-04-26 13:10 36.42664 26.27185 34995 ft 473 kts 139°
2026-04-26 13:10 36.37451 26.32154 34990 ft 473 kts 139°
2026-04-26 13:11 36.32232 26.37110 34981 ft 472 kts 139°
2026-04-26 13:11 36.27016 26.42067 34983 ft 472 kts 139°
2026-04-26 13:12 36.21801 26.47023 34977 ft 472 kts 139°
2026-04-26 13:12 36.16579 26.51966 34968 ft 473 kts 139°
2026-04-26 13:13 36.11353 26.56904 34991 ft 472 kts 139°
2026-04-26 13:13 36.06132 26.61831 34989 ft 472 kts 139°
2026-04-26 13:14 36.00907 26.66739 34983 ft 472 kts 140°
2026-04-26 13:14 35.95682 26.71646 34970 ft 472 kts 140°
2026-04-26 13:15 35.90452 26.76550 34964 ft 472 kts 140°
2026-04-26 13:15 35.86105 26.80623 34965 ft 472 kts 140°
2026-04-26 13:16 35.79985 26.86352 34963 ft 473 kts 140°
2026-04-26 13:16 35.74750 26.91239 34972 ft 472 kts 140°
2026-04-26 13:17 35.66930 26.98525 34961 ft 472 kts 140°
2026-04-26 13:18 35.59064 27.05825 34945 ft 472 kts 140°
2026-04-26 13:19 35.52043 27.12331 34940 ft 473 kts 141°
2026-04-26 13:19 35.46792 27.17189 34937 ft 473 kts 141°
2026-04-26 13:20 35.41547 27.22043 34966 ft 472 kts 141°
2026-04-26 13:20 35.36304 27.26887 34967 ft 472 kts 141°
2026-04-26 13:21 35.31053 27.31717 34956 ft 472 kts 142°
2026-04-26 13:21 35.25804 27.36538 34956 ft 472 kts 142°
2026-04-26 13:22 35.20555 27.41358 34950 ft 472 kts 142°
2026-04-26 13:22 35.15299 27.46161 34949 ft 472 kts 142°
2026-04-26 13:23 35.10043 27.50962 34957 ft 472 kts 142°
2026-04-26 13:23 35.04788 27.55772 34950 ft 472 kts 142°
2026-04-26 13:24 34.99559 27.60540 34947 ft 472 kts 142°
2026-04-26 13:24 34.94291 27.65331 34946 ft 473 kts 142°
2026-04-26 13:25 34.89019 27.70118 34950 ft 473 kts 142°
2026-04-26 13:25 34.83744 27.74902 34945 ft 473 kts 143°
2026-04-26 13:26 34.78457 27.79699 34933 ft 475 kts 143°
2026-04-26 13:26 34.73149 27.84494 34930 ft 476 kts 143°
2026-04-26 13:27 34.67826 27.89290 34931 ft 477 kts 143°
2026-04-26 13:27 34.62500 27.94095 34934 ft 477 kts 143°
2026-04-26 13:28 34.57164 27.98893 34936 ft 477 kts 143°
2026-04-26 13:28 34.51822 28.03687 34935 ft 478 kts 143°
2026-04-26 13:29 34.46440 28.08523 34941 ft 478 kts 144°
2026-04-26 13:29 34.41094 28.13311 34943 ft 478 kts 144°
2026-04-26 13:30 34.35741 28.18095 34943 ft 478 kts 144°
2026-04-26 13:30 34.30388 28.22871 34943 ft 478 kts 144°
2026-04-26 13:31 34.25031 28.27641 34932 ft 478 kts 144°
2026-04-26 13:31 34.19674 28.32412 34930 ft 479 kts 144°
2026-04-26 13:32 34.14306 28.37179 34936 ft 479 kts 145°
2026-04-26 13:32 34.08942 28.41932 34944 ft 478 kts 145°
2026-04-26 13:33 34.03585 28.46677 34944 ft 477 kts 145°
2026-04-26 13:33 33.98228 28.51409 34945 ft 477 kts 145°
2026-04-26 13:34 33.92866 28.56133 34937 ft 480 kts 146°
2026-04-26 13:34 33.87429 28.60912 34933 ft 488 kts 146°
2026-04-26 13:35 33.81917 28.65757 34940 ft 493 kts 146°
2026-04-26 13:35 33.76356 28.70642 34934 ft 497 kts 146°
2026-04-26 13:36 33.70828 28.75641 34932 ft 499 kts 140°
2026-04-26 13:36 33.65749 28.81330 34918 ft 500 kts 139°
2026-04-26 13:37 33.60669 28.87040 34921 ft 501 kts 139°
2026-04-26 13:37 33.55576 28.92754 34928 ft 501 kts 139°
2026-04-26 13:38 33.50474 28.98458 34931 ft 501 kts 140°
2026-04-26 13:38 33.45382 29.04162 34947 ft 501 kts 140°
2026-04-26 13:39 33.40281 29.09853 34945 ft 501 kts 140°
2026-04-26 13:39 33.35176 29.15523 34946 ft 501 kts 140°
2026-04-26 13:40 33.30062 29.21180 34928 ft 501 kts 140°
2026-04-26 13:40 33.24953 29.26856 34926 ft 502 kts 140°
2026-04-26 13:41 33.19843 29.32535 34927 ft 502 kts 140°
2026-04-26 13:41 33.14723 29.38195 34936 ft 502 kts 140°
2026-04-26 13:42 33.09598 29.43853 34940 ft 502 kts 140°
2026-04-26 13:42 33.04474 29.49503 34942 ft 502 kts 140°
2026-04-26 13:43 32.99345 29.55143 34924 ft 502 kts 141°
2026-04-26 13:43 32.94220 29.60783 34928 ft 502 kts 141°
2026-04-26 13:44 32.89084 29.66414 34929 ft 502 kts 141°
2026-04-26 13:44 32.83944 29.72039 34937 ft 502 kts 141°
2026-04-26 13:45 32.78800 29.77654 34942 ft 502 kts 142°
2026-04-26 13:45 32.73655 29.83267 34936 ft 502 kts 142°
2026-04-26 13:46 32.68507 29.88875 34948 ft 502 kts 142°
2026-04-26 13:46 32.63351 29.94485 34950 ft 505 kts 142°
2026-04-26 13:47 32.58154 30.00119 34945 ft 507 kts 143°
2026-04-26 13:47 32.52942 30.05759 34954 ft 507 kts 143°
2026-04-26 13:48 32.47733 30.11399 34942 ft 507 kts 143°
2026-04-26 13:48 32.42508 30.17030 34934 ft 508 kts 143°
2026-04-26 13:49 32.37276 30.22649 34956 ft 508 kts 143°
2026-04-26 13:49 32.32048 30.28283 34955 ft 510 kts 143°
2026-04-26 13:50 32.26787 30.33936 34960 ft 512 kts 144°
2026-04-26 13:50 32.21515 30.39586 34959 ft 512 kts 144°
2026-04-26 13:51 32.16238 30.45227 34956 ft 511 kts 144°
2026-04-26 13:51 32.10964 30.50857 34959 ft 511 kts 144°
2026-04-26 13:52 32.05682 30.56467 34965 ft 511 kts 144°
2026-04-26 13:52 32.00403 30.62075 34964 ft 511 kts 144°
2026-04-26 13:53 31.95126 30.67688 34963 ft 511 kts 144°
2026-04-26 13:53 31.89849 30.73295 34964 ft 511 kts 144°
2026-04-26 13:54 31.84567 30.78887 34972 ft 511 kts 144°
2026-04-26 13:54 31.79277 30.84477 34975 ft 511 kts 144°
2026-04-26 13:55 31.72193 30.91945 34976 ft 512 kts 144°
2026-04-26 13:56 31.63383 31.01220 34952 ft 512 kts 144°
2026-04-26 13:56 31.58086 31.06788 34969 ft 512 kts 145°
2026-04-26 13:57 31.52326 31.11382 34965 ft 492 kts 163°
2026-04-26 13:57 31.49163 31.12768 34967 ft 481 kts 172°
2026-04-26 13:57 31.46976 31.13362 34969 ft 475 kts 178°
2026-04-26 13:58 31.40465 31.14572 34957 ft 474 kts 178°
2026-04-26 13:58 31.33975 31.15800 34894 ft 466 kts 179°
2026-04-26 13:58 31.30787 31.16406 34094 ft 464 kts 179°
2026-04-26 13:59 31.27592 31.17003 33066 ft 465 kts 179°
2026-04-26 13:59 31.24395 31.17593 32032 ft 466 kts 178°
2026-04-26 13:59 31.21187 31.18186 31003 ft 467 kts 178°
2026-04-26 14:00 31.11578 31.19977 27725 ft 463 kts 178°
2026-04-26 14:00 31.08410 31.20576 26828 ft 459 kts 178°
2026-04-26 14:00 31.06334 31.20967 26294 ft 455 kts 178°
2026-04-26 14:01 31.02208 31.21743 24999 ft 442 kts 177°
2026-04-26 14:01 30.99190 31.22306 23811 ft 439 kts 176°
2026-04-26 14:01 30.96196 31.22854 22865 ft 432 kts 176°
2026-04-26 14:01 30.93253 31.23391 21878 ft 425 kts 176°
2026-04-26 14:02 30.90350 31.23923 20949 ft 419 kts 176°
2026-04-26 14:02 30.87510 31.24451 20352 ft 404 kts 177°
2026-04-26 14:02 30.84764 31.24969 20037 ft 398 kts 176°
2026-04-26 14:02 30.82044 31.25477 19718 ft 394 kts 177°
2026-04-26 14:03 30.79343 31.25975 19400 ft 392 kts 177°
2026-04-26 14:03 30.76653 31.26466 19092 ft 390 kts 177°
2026-04-26 14:03 30.73975 31.26953 18789 ft 389 kts 177°
2026-04-26 14:03 30.71309 31.27439 18495 ft 387 kts 177°
2026-04-26 14:04 30.68650 31.27926 18211 ft 386 kts 177°
2026-04-26 14:04 30.66006 31.28411 17891 ft 384 kts 177°
2026-04-26 14:04 30.63374 31.28894 17564 ft 382 kts 176°
2026-04-26 14:04 30.60750 31.29378 17262 ft 381 kts 176°
2026-04-26 14:05 30.58141 31.29862 16942 ft 379 kts 176°
2026-04-26 14:05 30.55541 31.30342 16633 ft 377 kts 176°
2026-04-26 14:05 30.52960 31.30818 16332 ft 374 kts 176°
2026-04-26 14:05 30.50420 31.31288 16028 ft 365 kts 176°
2026-04-26 14:06 30.47949 31.31838 15726 ft 362 kts 168°
2026-04-26 14:06 30.45661 31.33044 15436 ft 364 kts 152°
2026-04-26 14:06 30.43685 31.34881 15145 ft 362 kts 144°
2026-04-26 14:06 30.41808 31.36793 14857 ft 356 kts 144°
2026-04-26 14:07 30.39966 31.38679 14568 ft 350 kts 144°
2026-04-26 14:07 30.38093 31.40585 14288 ft 370 kts 144°
2026-04-26 14:07 30.36133 31.42570 13986 ft 377 kts 144°
2026-04-26 14:07 30.34115 31.44612 13695 ft 399 kts 143°
2026-04-26 14:08 30.31968 31.46772 13347 ft 417 kts 143°
2026-04-26 14:08 30.29797 31.48957 12734 ft 419 kts 144°
2026-04-26 14:08 30.27598 31.51149 12187 ft 415 kts 144°
2026-04-26 14:08 30.25417 31.53325 11758 ft 413 kts 144°
2026-04-26 14:09 30.23250 31.55490 11256 ft 410 kts 144°
2026-04-26 14:09 30.21105 31.57642 10772 ft 407 kts 144°
2026-04-26 14:09 30.18981 31.59783 10297 ft 404 kts 144°
2026-04-26 14:09 30.16878 31.61913 9828 ft 401 kts 144°
2026-04-26 14:10 30.14909 31.64192 9328 ft 405 kts 131°
2026-04-26 14:10 30.13593 31.67077 8804 ft 411 kts 111°
2026-04-26 14:10 30.13136 31.70326 8306 ft 410 kts 91°
2026-04-26 14:10 30.13615 31.73566 7850 ft 400 kts 70°
2026-04-26 14:11 30.16314 31.78806 7364 ft 368 kts 55°
2026-04-26 14:11 30.17706 31.81217 7109 ft 354 kts 55°
2026-04-26 14:11 30.19048 31.83542 6868 ft 342 kts 55°
2026-04-26 14:12 30.20347 31.85791 6629 ft 331 kts 53°
2026-04-26 14:12 30.21937 31.87627 6381 ft 320 kts 29°
2026-04-26 14:12 30.24041 31.88571 6134 ft 338 kts
2026-04-26 14:12 30.26383 31.88495 5882 ft 338 kts 343°
2026-04-26 14:13 30.30260 31.85706 5364 ft 327 kts 305°
2026-04-26 14:13 30.31254 31.83386 5125 ft 322 kts 283°
2026-04-26 14:13 30.31581 31.80824 4846 ft 323 kts 275°
2026-04-26 14:14 30.31805 31.78244 4471 ft 319 kts 275°
2026-04-26 14:14 30.32009 31.75781 4092 ft 295 kts 275°
2026-04-26 14:14 30.32197 31.73515 3804 ft 270 kts 275°
2026-04-26 14:14 30.32273 31.71424 3561 ft 254 kts 264°
2026-04-26 14:15 30.31849 31.69508 3312 ft 239 kts 247°
2026-04-26 14:15 30.31000 31.67936 3058 ft 224 kts 232°
2026-04-26 14:15 30.30010 31.66618 2807 ft 212 kts 232°
2026-04-26 14:15 30.29063 31.65344 2566 ft 206 kts 232°
2026-04-26 14:16 30.28136 31.64100 2326 ft 203 kts 231°
2026-04-26 14:16 30.27222 31.62875 2085 ft 198 kts 231°
2026-04-26 14:16 30.26354 31.61712 2002 ft 184 kts 231°
2026-04-26 14:16 30.25533 31.60613 1973 ft 176 kts 232°
2026-04-26 14:17 30.24738 31.59548 1980 ft 173 kts 233°
2026-04-26 14:17 30.23956 31.58502 1984 ft 171 kts 232°
2026-04-26 14:17 30.23179 31.57461 1984 ft 172 kts 232°
2026-04-26 14:17 30.22395 31.56412 1983 ft 172 kts 234°
2026-04-26 14:18 30.21628 31.55386 1980 ft 171 kts 232°
2026-04-26 14:18 30.20846 31.54341 1980 ft 168 kts 232°
2026-04-26 14:18 30.20075 31.53310 1985 ft 171 kts 234°
2026-04-26 14:18 30.19310 31.52289 1971 ft 162 kts 233°
2026-04-26 14:19 30.18614 31.51361 1973 ft 147 kts 231°
2026-04-26 14:19 30.17948 31.50471 1935 ft 144 kts 233°
2026-04-26 14:19 30.17291 31.49592 1809 ft 145 kts 233°
2026-04-26 14:19 30.16635 31.48716 1638 ft 143 kts 233°
2026-04-26 14:20 30.15987 31.47850 1452 ft 142 kts 232°
2026-04-26 14:20 30.15346 31.46995 1292 ft 140 kts 234°
2026-04-26 14:20 30.14703 31.46136 1108 ft 142 kts 233°
2026-04-26 14:20 30.14062 31.45281 935 ft 142 kts 233°
2026-04-26 14:21 30.13402 31.44402 741 ft 142 kts 231°
2026-04-26 14:21 30.12760 31.43546 542 ft 140 kts 230°
2026-04-26 14:21 30.12124 31.42695 390 ft 139 kts 230°
2026-04-26 14:21 30.11562 31.41938 370 ft 102 kts 229°
2026-04-26 14:22 30.11205 31.41466 373 ft 56 kts 229°
2026-04-26 14:22 30.11009 31.41201 374 ft 29 kts 229°
2026-04-26 14:22 30.10883 31.41039 372 ft 25 kts 228°
2026-04-26 14:22 30.10772 31.40892 371 ft 24 kts 230°
2026-04-26 14:23 30.10764 31.40741 374 ft 19 kts 303°
2026-04-26 14:23 30.10841 31.40651 374 ft 12 kts 308°
2026-04-26 14:23 30.10823 31.40566 374 ft 12 kts 230°
2026-04-26 14:23 30.10764 31.40488 374 ft 14 kts 230°
2026-04-26 14:24 30.10699 31.40401 374 ft 15 kts 229°
2026-04-26 14:24 30.10714 31.40305 374 ft 15 kts 342°
2026-04-26 14:24 30.10788 31.40363 374 ft 13 kts 51°
2026-04-26 14:24 30.10842 31.40437 374 ft 11 kts 47°
2026-04-26 14:25 30.10914 31.40453 374 ft 13 kts 325°
2026-04-26 14:25 30.10954 31.40353 374 ft 15 kts 287°
2026-04-26 14:25 30.10939 31.40241 374 ft 15 kts 232°
2026-04-26 14:25 30.10870 31.40149 374 ft 14 kts 227°
2026-04-26 14:26 30.10829 31.40045 374 ft 15 kts 255°
2026-04-26 14:26 30.10823 31.40017 374 ft 0 kts 255°